COSMOS 592

Satellite information

Favourite Embed

Satellite Type and Status

PAYLOADIN ORBIT

Key statistics

Satellite COSMOS 592 at a glance.

Uptime

18970

Days in orbit

Revolutions

≈ 12.6

Per day

Orbit

LEO

Low Earth Orbit

Inclination

74.0

Latest

Satellite identification and parameters

Extended collection of information and parameters for COSMOS 592.

Object identification

Identified? True

Debris? False

Object name: COSMOS 592

International designator: 1973-069E

Object number (NORAD): 6849

Object ID (CCSDS): 6849

Country: COMMONWEALTH OF INDEPENDENT STATES (CIS)

Current information (Y/N): Y

RCS size: MEDIUM

Orbital parameters

Period: 113.933 minutes

Inclination: 74.0051 deg

SMA: 7785.017 km

Apoapsis: 1483.258 km

Periapsis: 1330.506 km

RAAN: 358.4368 deg

Eccentricy: 0.00981066

Argument of periapsis: 68.9114 deg

Mean anomaly: 292.24 deg

Mean motion: 12.63902107 rev/day

Mean motion (dot): -0.00000014 rev/day2

B* drag term: 0.000010991304 1/REarth

Two-line elements (TLE)

Creation date: Sept. 8, 2025, 6:18 p.m.

Reference frame: TEME

Reference center: EARTH

Epoch: Sept. 8, 2025, 1:40 p.m. UTC

TLE line 0: 0 COSMOS 592

TLE line 1: 1 06849U 73069E 25251.56962107 -.00000014 00000-0 10991-4 0 9993

TLE line 2: 2 06849 74.0051 358.4368 0098107 68.9114 292.2400 12.63902107396083

Live tracking on map

Real-time ground track for satellite COSMOS 592.

In-orbit conjunctions

There are no conjunctions computed for COSMOS 592, at the moment. Check back to stay up to date, as we update our databases every day.

Go to all conjunctions

Associated space launch

Military communications satellites

COSMOS 592 was lifted into orbit during the mission ‘Kosmos-3M | Strela-1M 49-56’, on board a Kosmos-3M space rocket.

The launch took place on Oct. 2, 1973, 9:46 p.m. from 132/2.

For more information about the launch, click the button.

Launch to space Kosmos-3M | Strela-1M 49-56
Kosmos-3M | Strela-1M 49-56

Agency: N/A

Status: Launch Successful

Launch date: Oct. 2, 1973, 9:46 p.m. UTC

Rocket: Kosmos-3M

Launch pad: 132/2

Location: Plesetsk Cosmodrome, Russian Federation

...

Latest news about this satellite

There are no fresh news available about this satellite. Check back as we update our databases every day.


Newsletter sign-up

Weekly statistics, charts and insights to help you stay on top of the space industry.